When you browse on this site, cookies collect data to enhance your experience and personalize the content and advertising you see.
Visit our Privacy Policy to learn more. By continuing to use the site, you agree to this use of cookies and data.
  • In United Kingdom
  • List of Countries
  • For 7 days
  • Water Temperature
  • Satellite Maps
  • Weather Map
  • Weather Widgets
  • user-avatar
    Login

    Hourly Weather Khulna

    Today, 13 December, Thursday

    Time Temperature Precipitation Wind Pressure Humidity
    00:00 +20°C° 0 mm 0 mps 761 mmHg 46%
    01:00 +22°C° 0 mm 1 mps 761 mmHg 47%
    02:00 +22°C° 0 mm 1 mps 761 mmHg 47%
    03:00 +22°C° 0 mm 1 mps 761 mmHg 48%
    04:00 +21°C° 0 mm 1 mps 761 mmHg 49%
    05:00 +21°C° 0 mm 1 mps 761 mmHg 50%
    06:00 +20°C° 0 mm 2 mps 761 mmHg 51%
    07:00 +21°C° 0 mm 2 mps 762 mmHg 48%
    08:00 +24°C° 0 mm 2 mps 762 mmHg 46%
    09:00 +26°C° 0 mm 2 mps 762 mmHg 43%
    10:00 +27°C° 0 mm 3 mps 762 mmHg 39%
    11:00 +29°C° 0 mm 3 mps 762 mmHg 36%
    12:00 +31°C° 0 mm 3 mps 762 mmHg 32%
    13:00 +31°C° 0 mm 3 mps 761 mmHg 31%
    14:00 +31°C° 0 mm 3 mps 760 mmHg 30%
    15:00 +31°C° 0 mm 3 mps 760 mmHg 28%
    16:00 +30°C° 0 mm 3 mps 760 mmHg 32%
    17:00 +28°C° 0 mm 2 mps 760 mmHg 35%
    18:00 +26°C° 0 mm 2 mps 760 mmHg 38%
    19:00 +25°C° 0 mm 2 mps 760 mmHg 40%
    20:00 +25°C° 0 mm 2 mps 761 mmHg 41%
    21:00 +24°C° 0 mm 1 mps 761 mmHg 42%
    22:00 +24°C° 0 mm 2 mps 761 mmHg 43%
    23:00 +23°C° 0 mm 2 mps 761 mmHg 44%

    Tomorrow, 14 December, Friday

    Time Temperature Precipitation Wind Pressure Humidity
    00:00 +23°C° 0 mm 2 mps 762 mmHg 46%
    01:00 +21°C° 0 mm 2 mps 761 mmHg 47%
    02:00 +21°C° 0 mm 2 mps 761 mmHg 48%
    03:00 +21°C° 0 mm 2 mps 761 mmHg 49%
    04:00 +20°C° 0 mm 2 mps 761 mmHg 50%
    05:00 +20°C° 0 mm 2 mps 761 mmHg 52%
    06:00 +20°C° 0 mm 2 mps 762 mmHg 53%
    07:00 +21°C° 0 mm 3 mps 762 mmHg 51%
    08:00 +24°C° 0 mm 3 mps 762 mmHg 48%
    09:00 +25°C° 0 mm 3 mps 763 mmHg 46%
    10:00 +27°C° 0 mm 3 mps 762 mmHg 40%
    11:00 +29°C° 0 mm 4 mps 762 mmHg 35%
    12:00 +30°C° 0 mm 4 mps 762 mmHg 29%
    13:00 +32°C° 0 mm 4 mps 761 mmHg 28%
    14:00 +32°C° 0 mm 4 mps 761 mmHg 28%
    15:00 +32°C° 0 mm 4 mps 760 mmHg 27%
    16:00 +29°C° 0 mm 3 mps 760 mmHg 29%
    17:00 +28°C° 0 mm 3 mps 760 mmHg 31%
    18:00 +27°C° 0 mm 2 mps 760 mmHg 33%
    19:00 +26°C° 0 mm 2 mps 761 mmHg 33%
    20:00 +26°C° 0 mm 3 mps 762 mmHg 33%
    21:00 +25°C° 0 mm 3 mps 762 mmHg 33%
    22:00 +25°C° 0 mm 3 mps 762 mmHg 35%
    23:00 +24°C° 0 mm 3 mps 762 mmHg 36%

    Day after tomorrow, 15 December, Saturday

    Time Temperature Precipitation Wind Pressure Humidity
    00:00 +24°C° 0 mm 3 mps 762 mmHg 38%
    01:00 +22°C° 0 mm 3 mps 762 mmHg 39%
    02:00 +22°C° 0 mm 3 mps 762 mmHg 40%
    03:00 +22°C° 0 mm 3 mps 762 mmHg 42%
    04:00 +21°C° 0 mm 3 mps 762 mmHg 42%
    05:00 +21°C° 0 mm 3 mps 762 mmHg 43%
    06:00 +21°C° 0 mm 3 mps 762 mmHg 44%
    07:00 +21°C° 0 mm 3 mps 762 mmHg 44%
    08:00 +22°C° 0 mm 3 mps 763 mmHg 44%
    09:00 +22°C° 0 mm 4 mps 764 mmHg 44%
    10:00 +23°C° 0 mm 4 mps 763 mmHg 43%
    11:00 +25°C° 0 mm 4 mps 763 mmHg 41%
    12:00 +25°C° 0 mm 4 mps 762 mmHg 39%
    13:00 +25°C° 0 mm 3 mps 762 mmHg 41%
    14:00 +25°C° 0 mm 3 mps 761 mmHg 42%
    15:00 +25°C° 0 mm 2 mps 761 mmHg 43%
    16:00 +24°C° 0 mm 2 mps 761 mmHg 44%
    17:00 +24°C° 0 mm 2 mps 762 mmHg 44%
    18:00 +24°C° 0 mm 1 mps 762 mmHg 45%
    19:00 +23°C° 0 mm 1 mps 762 mmHg 45%
    20:00 +23°C° 0 mm 1 mps 762 mmHg 45%
    21:00 +23°C° 0 mm 1 mps 763 mmHg 45%
    22:00 +23°C° 0 mm 1 mps 763 mmHg 45%
    23:00 +23°C° 0 mm 1 mps 762 mmHg 46%

    16 December, Sunday

    Time Temperature Precipitation Wind Pressure Humidity
    00:00 +23°C° 0 mm 2 mps 762 mmHg 46%
    01:00 +23°C° 0.3 mm 2 mps 762 mmHg 49%
    02:00 +21°C° 0.3 mm 2 mps 762 mmHg 52%
    03:00 +21°C° 0.3 mm 2 mps 762 mmHg 55%
    04:00 +20°C° 0.3 mm 2 mps 762 mmHg 57%
    05:00 +20°C° 0.3 mm 2 mps 762 mmHg 60%
    06:00 +20°C° 0.3 mm 2 mps 762 mmHg 62%
    07:00 +21°C° 0 mm 2 mps 762 mmHg 60%
    08:00 +21°C° 0 mm 3 mps 763 mmHg 57%
    09:00 +22°C° 0 mm 3 mps 764 mmHg 55%
    10:00 +24°C° 0 mm 3 mps 763 mmHg 51%
    11:00 +25°C° 0 mm 4 mps 763 mmHg 47%
    12:00 +26°C° 0 mm 4 mps 762 mmHg 43%
    13:00 +26°C° 0 mm 5 mps 762 mmHg 42%
    14:00 +26°C° 0 mm 5 mps 761 mmHg 40%
    15:00 +27°C° 0 mm 6 mps 761 mmHg 39%
    16:00 +26°C° 0 mm 5 mps 761 mmHg 41%
    17:00 +25°C° 0 mm 5 mps 761 mmHg 44%
    18:00 +23°C° 0 mm 5 mps 761 mmHg 46%
    19:00 +22°C° 0 mm 4 mps 762 mmHg 47%
    20:00 +22°C° 0 mm 4 mps 762 mmHg 48%
    21:00 +22°C° 0 mm 3 mps 762 mmHg 49%
    22:00 +22°C° 0 mm 3 mps 762 mmHg 50%
    23:00 +22°C° 0 mm 3 mps 762 mmHg 51%

    17 December, Monday

    Time Temperature Precipitation Wind Pressure Humidity
    00:00 +22°C° 0 mm 3 mps 761 mmHg 52%
    01:00 +21°C° 0 mm 3 mps 761 mmHg 53%
    02:00 +21°C° 0 mm 3 mps 761 mmHg 54%
    03:00 +21°C° 0 mm 3 mps 760 mmHg 54%
    04:00 +20°C° 0 mm 3 mps 760 mmHg 56%
    05:00 +20°C° 0 mm 3 mps 761 mmHg 58%
    06:00 +19°C° 0 mm 3 mps 761 mmHg 60%
    07:00 +21°C° 0 mm 4 mps 761 mmHg 58%
    08:00 +22°C° 0 mm 4 mps 762 mmHg 56%
    09:00 +23°C° 0 mm 5 mps 762 mmHg 53%
    10:00 +25°C° 0 mm 5 mps 762 mmHg 51%
    11:00 +26°C° 0 mm 5 mps 762 mmHg 49%
    12:00 +28°C° 0 mm 5 mps 761 mmHg 46%
    13:00 +27°C° 0 mm 5 mps 761 mmHg 51%
    14:00 +26°C° 0 mm 5 mps 760 mmHg 56%
    15:00 +23°C° 0 mm 4 mps 759 mmHg 60%
    16:00 +23°C° 0 mm 4 mps 759 mmHg 64%
    17:00 +22°C° 0 mm 4 mps 760 mmHg 67%
    18:00 +21°C° 0 mm 4 mps 760 mmHg 71%
    19:00 +21°C° 0 mm 4 mps 760 mmHg 72%
    20:00 +21°C° 0 mm 3 mps 760 mmHg 73%
    21:00 +20°C° 0 mm 3 mps 761 mmHg 74%
    22:00 +20°C° 0 mm 3 mps 761 mmHg 74%
    23:00 +20°C° 0 mm 3 mps 760 mmHg 75%

    18 December, Tuesday

    Time Temperature Precipitation Wind Pressure Humidity
    00:00 +20°C° 0 mm 3 mps 760 mmHg 75%
    01:00 +20°C° 0 mm 3 mps 760 mmHg 76%
    02:00 +20°C° 0 mm 2 mps 760 mmHg 77%
    03:00 +20°C° 0 mm 2 mps 759 mmHg 78%
    04:00 +20°C° 0.3 mm 2 mps 759 mmHg 80%
    05:00 +20°C° 0.3 mm 2 mps 759 mmHg 81%
    06:00 +19°C° 0.3 mm 2 mps 759 mmHg 83%
    07:00 +20°C° 0.4 mm 2 mps 760 mmHg 83%
    08:00 +20°C° 0.4 mm 2 mps 760 mmHg 83%
    09:00 +22°C° 0.4 mm 1 mps 761 mmHg 82%
    10:00 +23°C° 1 mm 1 mps 760 mmHg 82%
    11:00 +23°C° 1 mm 1 mps 760 mmHg 81%
    12:00 +24°C° 1 mm 1 mps 760 mmHg 80%
    13:00 +25°C° 0.1 mm 1 mps 759 mmHg 77%
    14:00 +25°C° 0.1 mm 1 mps 758 mmHg 75%
    15:00 +26°C° 0.1 mm 1 mps 758 mmHg 72%
    16:00 +25°C° 0.1 mm 1 mps 758 mmHg 75%
    17:00 +25°C° 0.1 mm 1 mps 758 mmHg 79%
    18:00 +24°C° 0.1 mm 1 mps 759 mmHg 82%
    19:00 +24°C° 0.2 mm 1 mps 759 mmHg 83%
    20:00 +24°C° 0.2 mm 1 mps 759 mmHg 83%
    21:00 +24°C° 0.2 mm 1 mps 760 mmHg 84%
    22:00 +24°C° 0.3 mm 1 mps 760 mmHg 85%
    23:00 +23°C° 0.3 mm 1 mps 760 mmHg 86%
    Show more